Location: Misciano
(43.5000°N, 11.9500°E)
Time: 20:04:25
(UTC+00:00)

ERS-1 Rocket - Pass Details

Date: 13 August 2020
Orbit: 753 x 757 km, 98.5° (Epoch: 22 September)

Event Time Altitude Azimuth Distance (km) Brightness Sun altitude
Exits shadow 19:56:12 24° 103° (ESE) 1,549 4.1 -16.2°
Maximum altitude 19:58:04 30° 66° (ENE) 1,328 4.0 -16.5°
Drops below altitude 10° 20:02:24 10° 6° (N) 2,289 5.9 -17.1°
Sets 20:04:56 0° 357° (N) 3,218 6.9 -17.5°
